Location: Pasadena, ca
(34.1243°N, 118.1037°W)
Time: 09:37:06
(UTC-08:00)

Hubble Space Telescope - Visible Passes

Search period start: 19 February 2018 00:00
Search period end: 01 March 2018 00:00
Orbit: 537 x 541 km, 28.5° (Epoch: 18 February)

Date Brightness Start Highest point End Pass type
(mag) Time Alt. Az. Time Alt. Az. Time Alt. Az.
19 Feb 3.2 04:26:42 15° SSE 04:26:42 15° SSE 04:29:01 10° SE visible
19 Feb 2.3 06:03:44 10° SW 06:07:24 31° S 06:11:05 10° ESE visible
20 Feb 3.2 04:17:11 17° SE 04:17:11 17° SE 04:19:08 10° ESE visible
20 Feb 2.1 05:53:19 10° WSW 05:57:05 34° S 06:00:50 10° ESE visible
21 Feb 3.3 04:07:37 17° SE 04:07:37 17° SE 04:09:06 10° ESE visible
21 Feb 1.9 05:42:59 10° WSW 05:46:46 36° S 05:50:34 10° ESE visible
22 Feb 3.5 03:57:58 15° ESE 03:57:58 15° ESE 03:58:59 10° ESE visible
22 Feb 1.8 05:33:20 14° WSW 05:36:27 37° S 05:40:17 10° ESE visible
23 Feb 3.7 03:48:18 13° ESE 03:48:18 13° ESE 03:48:49 10° ESE visible
23 Feb 1.7 05:23:39 19° WSW 05:26:08 37° S 05:29:58 10° ESE visible
24 Feb 4.0 03:38:36 10° ESE 03:38:36 10° ESE 03:38:36 10° ESE visible
24 Feb 1.7 05:13:57 24° SW 05:15:49 37° S 05:19:39 10° ESE visible
25 Feb 1.7 05:04:15 28° SW 05:05:30 35° S 05:09:17 10° ESE visible
26 Feb 1.7 04:54:33 31° SSW 04:55:10 33° S 04:58:54 10° ESE visible
27 Feb 1.9 04:44:53 30° S 04:44:53 30° S 04:48:29 10° SE visible
28 Feb 2.3 04:35:15 25° S 04:35:15 25° S 04:38:02 10° SE visible
